Regional Weather Roundup
Issued by NWS

Home | Current Version | Previous Version | Graphics & Text | Print | Product List | Glossary On
Versions: 1 2 3 4 5 6 7 8 9 10 11 12 13 14 15 16 17 18 19 20 21 22 23 24 25 26 27 28 29 30 31 32 33 34 35 36 37 38 39 40 41 42 43 44 45 46 47 48 49 50
000
ASUS45 KABQ 180601
RWRNM
WEATHER ROUNDUP FOR NEW MEXICO
NATIONAL WEATHER SERVICE ALBUQUERQUE NM
1200 AM MDT SAT APR 18 2015

NOTE: "FAIR" MEANS FEW OR NO CLOUDS BELOW 12,000 FEET AGL WITH NO
       SIGNIFICANT WEATHER OR OBSTRUCTIONS TO VISION.

      THIS PRODUCT IS RELEASED AS TWO VERSIONS.  ONE VERSION NEAR
      THE TOP OF THE HOUR CONTAINING PRELIMINARY DATA FROM ALBUQUERQUE
      AND OTHER STATIONS.  A FINAL VERSION WITH ADDITIONAL DATA IS
      ISSUED ABOUT 10 MINUTES AFTER THE HOUR.

NMZ501-503-504-510>518-180700-
NORTHWEST PLATEAU/NORTHCENTRAL MOUNTAINS

CITY           SKY/WX    TMP DP  RH WIND       PRES   REMARKS
FARMINGTON     LGT RAIN  36  34  92 SE6       30.02F WCI  31
6HR MIN TEMP:  36; 6HR MAX TEMP:  45; 6HR PCP:  0.06;

SANTA FE       LGT RAIN  35  32  88 SE12      30.06S WCI  27
6HR MIN TEMP:  35; 6HR MAX TEMP:  45; 6HR PCP: TRACE;

ANGEL FIRE     FAIR      20  13  74 CALM      30.05S

$$
NMZ402-403-502-505>509-180700-
WESTCENTRAL MOUNTAINS/SOUTHWEST MOUNTAINS

CITY           SKY/WX    TMP DP  RH WIND       PRES   REMARKS
GALLUP         CLOUDY    38  22  52 SW6       30.06S WCI  33
6HR MIN TEMP:  37; 6HR MAX TEMP:  50;

GRANTS         MOCLDY    32  21  65 CALM      30.06F
SILVER CITY      N/A     37   7  28 N10       30.09S WCI  30

$$
NMZ407-409-411-412-180700-
SOUTHERN DESERTS

CITY           SKY/WX    TMP DP  RH WIND       PRES   REMARKS
DEMING         CLEAR     46   8  21 NW8       30.03S
6HR MIN TEMP:  46; 6HR MAX TEMP:  67;

HOLLOMAN AFB   CLEAR     53  14  21 CALM      30.00R
ALAMOGORDO     CLEAR     50  14  23 E5        30.02R
T OR C         CLEAR     49  15  25 NW8       30.03S
6HR MIN TEMP:  49; 6HR MAX TEMP:  66;


$$
NMZ519>523-180700-
CENTRAL VALLEYS/CENTRAL HIGHLANDS

CITY           SKY/WX    TMP DP  RH WIND       PRES   REMARKS
ALBUQUERQUE    CLOUDY    44  28  53 N12       30.05F
6HR MIN TEMP:  44; 6HR MAX TEMP:  52;

DOUBLE EAGLE   CLOUDY    38  29  69 N7        30.06F WCI  33
MORIARTY ARPT  FAIR      36  24  61 NE3       30.07S
6HR MIN TEMP:  35; 6HR MAX TEMP:  50;

CLINES CORNERS MOCLDY    36  23  59 NW15      30.03F WCI  27
6HR MIN TEMP:  36; 6HR MAX TEMP:  48;

BELEN          FAIR      42  23  45 NW7       30.05F
6HR MIN TEMP:  42; 6HR MAX TEMP:  58;

SOCORRO        NOT AVBL

$$
NMZ524>526-539-540-180700-
SOUTHCENTRAL MOUNTAINS

CITY           SKY/WX    TMP DP  RH WIND       PRES   REMARKS
RUIDOSO        NOT AVBL

$$
NMZ527>531-180700-
NORTHEAST HIGHLANDS/NORTHEAST PLAINS

CITY           SKY/WX    TMP DP  RH WIND       PRES   REMARKS
LAS VEGAS      PTCLDY    32  23  69 W10       30.04F WCI  24
6HR MIN TEMP:  31; 6HR MAX TEMP:  48;

RATON          CLOUDY    39  21  48 W8        30.00S WCI  33
6HR MIN TEMP:  39; 6HR MAX TEMP:  49;

CLAYTON        CLEAR     41  15  35 W10       29.97F
6HR MIN TEMP:  41; 6HR MAX TEMP:  61;


$$
NMZ532>537-180700-
EASTCENTRAL PLAINS

CITY           SKY/WX    TMP DP  RH WIND       PRES   REMARKS
TUCUMCARI      CLEAR     42  14  32 SW5       29.98S
6HR MIN TEMP:  40; 6HR MAX TEMP:  67;

CANNON AFB     NOT AVBL
CLOVIS AIRPORT CLEAR     39  18  41 NW7       29.99S WCI  34

$$
NMZ028-029-538-180700-
SOUTHEAST PLAINS

CITY           SKY/WX    TMP DP  RH WIND       PRES   REMARKS
ROSWELL        CLEAR     46  32  58 N12       29.98R
6HR MIN TEMP:  45; 6HR MAX TEMP:  71;

ARTESIA        CLEAR     50  23  34 W8        29.97F
CARLSBAD       CLEAR     47  28  47 W7        29.96S
6HR MIN TEMP:  47; 6HR MAX TEMP:  74;

HOBBS          FAIR      48  32  53 CALM      30.00R


$$



USA.gov is the U.S. government's official web portal to all federal, state and local government web resources and services.